Regional Weather Roundup
Issued by NWS Northern Indiana

Home | Current Version | Previous Version | Text Only | Print | Product List | Glossary Off
Versions: 1 2 3 4 5 6 7 8 9 10 11 12 13 14 15 16 17 18 19 20 21 22 23 24 25 26 27 28 29 30 31 32 33 34 35 36 37 38 39 40 41 42 43 44 45 46 47 48 49 50

000
ASUS43 KIWX 280200
RWRIWX

KIWX WEATHER ROUNDUP
NATIONAL WEATHER SERVICE NORTHERN INDIANA
1000 PM EDT FRI MAY 27 2016

NOTE: "FAIR" INDICATES FEW OR NO CLOUDS BELOW 12,000 FEET WITH NO
SIGNIFICANT WEATHER AND/OR OBSTRUCTIONS TO VISIBILITY.

* THESE STATIONS ARE NOT UNDER NWS QUALITY CONTROL. THEY ALSO MAY NOT
  REPORT WEATHER SUCH AS PRECIPITATION OR FOG.

INZ001>027-280300-
NORTHERN INDIANA

CITY           SKY/WX    TMP DP  RH WIND       PRES   REMARKS
GARY*          MOCLDY    72  72 100 S8        29.88R
SOUTH BEND     PTCLDY    70  68  93 SE5       29.91R
GOSHEN         CLEAR     75  59  57 S8        29.91R
ANGOLA*          N/A     77  63  61 S5        29.94R
FORT WAYNE     MOCLDY    78  59  51 S8        29.95R
PERU/GRISSOM   PTCLDY    76  58  54 S8        29.93R

$$
INZ028>050-280300-
CENTRAL INDIANA

CITY           SKY/WX    TMP DP  RH WIND       PRES   REMARKS
LAFAYETTE      CLOUDY    73  65  75 SW5       29.91R
KOKOMO*        CLEAR     75  57  53 S8        29.93R
MUNCIE*        PTCLDY    80  61  52 S8        29.96R
INDIANAPOLIS   CLOUDY    77  61  57 S8        29.94R

$$
MIZ043>046-050>051-056>058-064>065-071>073-077>080-280300-
SOUTHWEST LOWER MICHIGAN

CITY           SKY/WX    TMP DP  RH WIND       PRES   REMARKS
BATTLE CREEK   CLOUDY    77  63  61 SE5       29.93R
BENTON HARBOR  CLOUDY    70  67  90 SE6       29.88S
COLDWATER*     CLEAR     73  62  70 SE3       29.93S
HILLSDALE*     CLEAR     76  56  50 SE5       29.96R
HOLLAND        CLOUDY    70  65  84 SE7       29.90F
GRAND RAPIDS   CLOUDY    77  65  66 W12       29.92R
KALAMAZOO      CLOUDY    79  58  48 S3        29.91R
STURGIS*       CLEAR     76  61  60 SE6       29.92R
THREE RIVERS*  FAIR      76  59  55 SE3       29.92R

$$
OHZ001>008-015>018-024>025-280300-
NORTHWEST OHIO

CITY           SKY/WX    TMP DP  RH WIND       PRES   REMARKS
DEFIANCE       CLEAR     81  59  47 S7        29.95R
FINDLAY        PTCLDY    77  60  55 S8        29.96R
TOLEDO EXPRESS CLOUDY    74  64  71 E5        29.95R
TOLEDO METCALF CLOUDY    77  64  64 E5        29.96R
LIMA           CLOUDY    79  60  52 S6        29.98R

$$
AND FOR LAKE MICHIGAN COASTAL AND OPEN LAKE BUOY OBSERVATIONS

STATION/POSITION TEMP    WIND        PRES    VSBY  WAVE
                 AIR SEA DIR/SP/G                  HT/PER
                 (F)     (DEG/KT/KT) (MB)    (MI)  (FT/S)
CALUMET HARBOR           160/  8/ 11 1010.4R
MICHIGAN CITY     73     150/  7/  9   N/A
BURNS HARBOR      73     200/ 11/ 19 1012.2R
SAINT JOSEPH      70      90/  1/  4 1012.5R
SOUTH LAKE BUOY   58 51  150/ 12/ 14 1010.7          1
4 MI NW BRIDGMAN  66 62  120/  6/  8   N/A           1/ 3
MICHIGAN CITY     65 59  160/  6/  8   N/A           1

$$
&&



USA.gov is the U.S. government's official web portal to all federal, state and local government web resources and services.